Location: Rounton
(54.4000°N, 1.3500°W)
Time: 13:50:07
(UTC+00:00)

Transit 2A - Pass Details

Date: 30 November 2021
Orbit: 591 x 967 km, 66.7° (Epoch: 17 January)

Event Time Altitude Azimuth Distance (km) Brightness Sun altitude
Rises 00:54:21 0° 192° (SSW) 3,311 - -55.3°
Reaches altitude 10° 00:56:47 10° 185° (S) 2,441 - -55.2°
Maximum altitude 01:02:05 41° 117° (ESE) 1,266 - -54.8°
Drops below altitude 10° 01:07:50 10° 49° (NE) 2,655 - -54.4°
Exits shadow 01:09:18 - 45° (NE) 3,175 9.7 -54.3°
Sets 01:10:35 0° 43° (NE) 3,634 10.0 -54.2°
